Preview of NWS' New Version of Forecast
This preview is not operational and should not be used for support decisions.
Latest weather observations around

Cincinnati/Northern Kentucky International Airport (KCVG)

Using English Units (Switch to International System of Units)
Date/ Time (EDT) Wind (mph) Vis. (mi) Weather Sky Cond. Temp (°F) Rel. Humidity Wind Chill (°F) Heat Index (°F) Pressure Precip. (in)
Air Dwpt 6 hour Altimeter (inHg) Sea level (inHg) 1 hr 3 hr 6 hr
Max Min
Sep 23 04:52 SW 9 8 Light Rain BKN055 BKN075 BKN100 OVC140 70 65     84%     29.97 29.94 0 0  
Sep 23 03:52 SSW 8 10 Light Rain BKN065 OVC100 72 60     66%   72 29.96 29.93 0    
Sep 23 02:52 SW 8 10 Cloudy FEW060 OVC100 77 56     48%   77 29.98 29.94      
Sep 23 01:52 SSW 10 10 Cloudy FEW065 BKN080 OVC110 76 56     50%   76 29.98 29.94      
Sep 23 00:52 SSW 10 10 Mostly Cloudy BKN075 BKN250 76 55     48%   75 29.99 29.95      
Sep 22 23:52 SSW 8 10 Mostly Clear FEW250 75 55     50%   75 29.99 29.96      
Sep 22 22:52 S 8 10 Mostly Clear FEW250 75 55     50%   75 29.99 29.96      
Sep 22 21:52 S 9 10 Mostly Clear FEW250 76 55     48%   75 30 29.97      
Sep 22 20:52 S 7 10 Clear   78 54     43%   78 29.99 29.96      
Sep 22 19:52 SSW 8 10 Clear CLR 81 54     39%   81 29.99 29.96      
Sep 22 18:52 SSW 10 10 Mostly Clear FEW250 85 53     34%   83 29.98 29.95      
Sep 22 17:52 SSW 10 10 Partly Cloudy SCT250 87 53     31%   85 29.99 29.96      
Sep 22 16:52 SW 10 10 Partly Cloudy FEW060 SCT250 88 54     31%   86 30.01 29.97      
Sep 22 15:52 SSW 16 10 Partly Cloudy FEW060 SCT250 88 54     31%   86 30.02 29.99      
Sep 22 14:52 SW 11 10 Mostly Clear FEW250 88 55     33%   86 30.05 30.02      
Sep 22 13:52 SW 17 10 Partly Cloudy FEW055 SCT250 87 55     34%   85 30.07 30.03      
Sep 22 12:52 SW 9 10 Mostly Clear FEW045 FEW250 87 55     34%   85 30.09 30.06      
Sep 22 11:52 SW 8 10 Clear CLR 84 58     41%   83 30.13 30.09      
Sep 22 10:52 SSW 9 10 Mostly Clear FEW250 80 58     47%   80 30.15 30.11      
Sep 22 09:52 SSW 8 10 Partly Cloudy SCT250 76 58     54%   76 30.15 30.12      
Sep 22 08:52 SSW 9 10 Partly Cloudy SCT250 69 57     65%     30.15 30.12      
Sep 22 07:52 S 8 10 Mostly Cloudy BKN250 66 57     73%     30.14 30.11      
Sep 22 06:52 S 7 10 Mostly Cloudy BKN250 63 57     81%     30.15 30.12      
Sep 22 05:52 S 6 10 Partly Cloudy SCT190 66 57     73%     30.13 30.1      
Sep 22 04:52 S 8 10 Mostly Cloudy BKN190 67 58     73%     30.13 30.1      
Sep 22 03:52 S 6 10 Mostly Cloudy BKN190 67 59     76%     30.14 30.11      
Sep 22 02:52 SSW 5 10 Partly Cloudy SCT200 70 58     66%     30.15 30.11      
Sep 22 01:52 S 7 10 Clear CLR 69 58     68%     30.14 30.11     0
Sep 22 00:52 S 7 10 Clear CLR 71 59     66%   71 30.15 30.12      
Sep 21 23:52 S 7 10 Mostly Cloudy BKN200 74 59     60%   74 30.16 30.12      
Sep 21 22:52 S 5 10 Mostly Clear FEW200 72 59     64%   72 30.17 30.13   0  
Sep 21 21:52 S 5 10 Mostly Clear FEW200 77 59     54%   77 30.16 30.13      
Sep 21 20:52 S 3 10 Mostly Clear FEW200 FEW250 78 59     52%   78 30.16 30.14 0    
Sep 21 19:52 S 5 10 Mostly Clear FEW200 FEW250 79 58     49%   79 30.16 30.13      
Sep 21 18:52 SSW 7 10 Partly Cloudy FEW065 SCT250 84 57     40%   83 30.16 30.12      
Sep 21 17:52 SSW 10 10 Partly Cloudy FEW065 FEW150 SCT250 86 58     39%   85 30.16 30.12      
Sep 21 16:52 S 8 10 Mostly Cloudy FEW065 FEW150 BKN250 88 58     36%   87 30.17 30.13      
Sep 21 15:52 SW 14 10 Mostly Cloudy FEW060 FEW120 BKN250 88 58     36%   87 30.18 30.15      
Sep 21 14:52 SW 14 10 Mostly Cloudy SCT075 BKN120 88 58     36%   87 30.2 30.17      
Sep 21 13:52 SSW 10 10 Mostly Cloudy SCT075 BKN120 87 60     40%   87 30.22 30.19      
Sep 21 12:52 SW 9 10 Partly Cloudy SCT070 86 61     43%   86 30.24 30.2      
Sep 21 11:52 SW 9 10 Mostly Clear FEW075 83 62     49%   84 30.26 30.22      
Sep 21 10:52 WSW 10 10 Partly Cloudy FEW075 SCT120 80 63     56%   81 30.26 30.23      
Sep 21 09:52 SW 11 10 Partly Cloudy SCT120 77 62     60%   77 30.26 30.23      
Sep 21 08:52 SSW 8 10 Mostly Clear FEW095 72 63     73%   72 30.25 30.22      
Sep 21 07:52 S 6 9 Mostly Cloudy BKN095 BKN150 67 63     87%     30.24 30.21      
Sep 21 06:52 SSW 5 10 Partly Cloudy SCT060 69 63     81%     30.23 30.2      
Sep 21 05:52 SSW 6 10 Partly Cloudy SCT070 SCT095 69 63     81%     30.22 30.19      
Sep 21 04:52 SSW 6 10 Mostly Cloudy BKN250 69 63     81%     30.21 30.17      
Sep 21 03:52 SSW 5 10 Clear CLR 70 64     81%     30.2 30.16      
Sep 21 02:52 SSW 6 10 Clear CLR 71 64     79%   72 30.2 30.16      
Sep 21 01:52 SSW 6 10 Mostly Clear FEW055 FEW250 72 64     76%   72 30.2 30.16      
Sep 21 00:52 S 8 10 Clear CLR 73 65     76%   74 30.19 30.16      
Sep 20 23:52 SSW 8 10 Partly Cloudy SCT060 74 65     74%   74 30.2 30.17      
Sep 20 22:52 S 6 10 Partly Cloudy SCT055 75 65     71%   76 30.19 30.16      
Sep 20 21:52 S 7 10 Partly Cloudy SCT250 75 65     71%   76 30.18 30.15      
Sep 20 20:52 SSW 7 10 Partly Cloudy FEW050 SCT250 77 64     64%   77 30.17 30.14      
Sep 20 19:52 SSW 6 10 Clear   79 63     58%   79 30.16 30.13      
Sep 20 18:52 SSW 10 10 Partly Cloudy FEW050 SCT250 82 62     51%   83 30.15 30.11      
Sep 20 17:52 S 8 10 Clear   85 64     50%   86 30.14 30.11      
Sep 20 16:52 SW 6 10 Partly Cloudy FEW043 SCT250 86 64     48%   87 30.14 30.11      
Sep 20 15:52 WSW 8 10 Partly Cloudy SCT040 SCT250 86 65     50%   88 30.15 30.11      
Sep 20 14:52 SW 9 10 Partly Cloudy SCT035 86 65     50%   88 30.16 30.12      
Sep 20 13:52 SW 11 10 Partly Cloudy SCT045 84 65     53%   86 30.17 30.14      
Sep 20 12:52 WSW 8 10 Mostly Cloudy SCT065 BKN080 82 64     55%   84 30.19 30.16      
Sep 20 11:52 SW 9 10 Mostly Cloudy BKN080 BKN100 80 64     58%   82 30.2 30.17      
Sep 20 10:52 SSW 11 10 Mostly Cloudy SCT060 BKN080 BKN100 78 63     60%   78 30.2 30.16      
Sep 20 09:52 SW 13 10 Partly Cloudy SCT080 SCT100 75 63     66%   75 30.19 30.16      
Sep 20 08:52 SSW 11 10 Partly Cloudy FEW080 SCT100 SCT200 72 62     71%   72 30.19 30.16      
Sep 20 07:52 SSW 9 10 Partly Cloudy FEW080 SCT100 69 62     78%     30.17 30.14      
Sep 20 06:52 S 8 10 Partly Cloudy SCT080 69 62     78%     30.16 30.12      
Sep 20 05:52 SSW 8 10 Mostly Clear FEW070 69 63     81%     30.15 30.12      
Sep 20 04:52 S 6 10 Mostly Clear FEW065 69 63     81%     30.14 30.11      
Sep 20 03:52 SSW 7 10 Partly Cloudy FEW060 SCT075 72 63     73%   72 30.13 30.1      
Sep 20 02:52 S 8 10 Mostly Clear FEW070 70 63     78%     30.13 30.09      
May 14 21:52 SW 6 10 Clear CLR 78 62     58%   78 29.91 29.88      
May 14 14:52 SW 9 10 Partly Cloudy SCT065 88 63     43%   89 29.97 29.93      
May 14 07:52 SSW 5 7 Mostly Clear FEW150 71 64     79%   72 30 29.97      
May 14 06:52 SW 6 10 Mostly Clear FEW150 68 63     84%     29.99 29.96      
May 13 22:52 SSW 7 10 Mostly Clear FEW200 73 65     76%   74 29.99 29.96      
May 13 10:53 WSW 10 10 Clear CLR 81 64     56%   83 30.03 30      
May 12 10:52 WSW 13 10 Partly Cloudy FEW070 FEW130 SCT150 SCT200 78 61     56%   78 30.08 30.04      
May 12 00:52 SSW 6 10 Mostly Clear FEW250 70 59     68%     30 29.96      
May 11 16:52 SSW 15 10 Cloudy SCT065 OVC250 84 58     41%   83 29.93 29.9      
Jun 11 13:52 SSW 14 10 Partly Cloudy SCT050 SCT060 86 63     46%   87 30.13 30.09      
Jun 11 09:52 SW 7 10 Clear CLR 77 63     62%   77 30.15 30.12      
Jun 11 05:52 S 7 10 Clear CLR 62 58     86%     30.1 30.07      
Jun 11 00:52 S 7 10 Clear CLR 67 59     76%     30.05 30.02      
Jun 10 18:52 SSW 10 10 Mostly Clear FEW050 FEW250 82 57     43%   82 29.99 29.97      
Jun 10 13:52 SSW 10 10 Partly Cloudy FEW130 SCT150 SCT200 81 56     42%   81 30.05 30.02      
Jun 09 16:52 SW 8 10 Mostly Clear FEW060 81 54     39%   81 29.91 29.89      
Jun 09 13:52 SW 13 10 Mostly Clear FEW130 79 52     39%   78 29.95 29.93      
Jun 09 12:52 SW 11 10 Mostly Clear FEW090 77 52     42%   76 29.96 29.94      
Jun 07 23:52 NE 9 10 Partly Cloudy SCT055 60 48     64%     30.03 30.02      
Jun 06 14:52 N 14 10 Mostly Clear FEW055 76 49     39%   75 29.91 29.88      
Jun 06 04:52 NNE 11 10 Mostly Clear FEW080 FEW250 61 53     75%     29.87 29.85      
Jun 05 16:52 W 9 4 Thunderstorms and Rain SCT038 BKN055 OVC200 69 63     81%     29.73 29.7 0 0